Nome, AK

5:28 PM AKDT on April 19, 2018 (GMT -0800)
Nome

Weather History for PAOM - September, 2013

Change the Weather History Date:

Thursday, September 12, 2013

  Actual Average Record
Temperature  
Mean Temperature 42 °F 45 °F  
Max Temperature 48 °F 51 °F 65 °F (1979)
Min Temperature 35 °F 39 °F 24 °F (1987)
Degree Days  
Heating Degree Days 23 20  
Month to date heating degree days 228 223  
Since 1 July heating degree days 1002 1083  
Cooling Degree Days 0 0  
Month to date cooling degree days 0 0  
Year to date cooling degree days 7 3  
Moisture  
Dew Point 42 °F    
Average Humidity 0    
Maximum Humidity 0    
Minimum Humidity 0    
Precipitation  
Precipitation 0.70 in 0.09 in 0.70 in (2013)
Month to date precipitation 1.56 1.09  
Year to date precipitation 14.67 11.54  
Snow  
Snow 0.00 in 0.00 in 0.30 in (1992)
Month to date snowfall 0.0 0.1  
Since 1 July snowfall 0.0 0.1  
Since 1 September snowfall 0.0 0.1  
Snow Depth 0.00 in    
Sea Level Pressure  
Sea Level Pressure 29.71 in    
Wind  
Wind Speed 10 mph (SSW)    
Max Wind Speed 20 mph    
Max Gust Speed 28 mph    
Visibility 8 miles    
Events Rain    
T = Trace of Precipitation, MM = Missing Value Source: NWS Daily Summary

Daily Weather History Graph

Daily Weather History Graph

Search for Another Location

Airport or City:

Astronomy

Sep. 12, 2013 Rise Set
Actual Time 8:16 AM AKDT 9:36 PM AKDT
Civil Twilight 7:26 AM AKDT 10:26 PM AKDT
Nautical Twilight 6:21 AM AKDT 11:30 PM AKDT
Astronomical Twilight 4:58 AM AKDT 12:52 AM AKDT
Moon 6:29 PM AKDT (9/12) No Moon Set
Length of Visible Light 15h 00m
Length of Day
13h 20m
First Quarter, 51% of the Moon is Illuminated
Sep 12
First Quarter
Sep 19
Full
Sep 26
Last Quarter
Oct 4
New
Oct 11
First Quarter

Hourly Weather History & Observations

Time (AKDT) Temp. Windchill Dew Point Humidity Pressure Visibility Wind Dir Wind Speed Gust Speed Precip Events Conditions
12:53 AM 44.1 °F 38.1 °F 41.0 °F 89% 29.74 in 10.0 mi East 11.5 mph - N/A   Overcast
1:53 AM 45.0 °F 39.3 °F 42.1 °F 90% 29.73 in 10.0 mi East 11.5 mph - 0.00 in Rain Light Rain
2:26 AM 44.6 °F 39.2 °F 42.8 °F 93% 29.73 in 7.0 mi East 10.4 mph - 0.05 in Rain Light Rain
2:53 AM 45.0 °F 40.1 °F 43.0 °F 93% 29.73 in 9.0 mi East 9.2 mph - 0.07 in Rain Light Rain
3:53 AM 46.9 °F - 45.0 °F 93% 29.72 in 6.0 mi East 9.2 mph - 0.04 in Rain Rain
4:14 AM 46.4 °F 41.5 °F 42.8 °F 87% 29.72 in 8.0 mi SSE 10.4 mph - 0.05 in Rain Light Rain
4:53 AM 46.9 °F - 45.0 °F 93% 29.72 in 9.0 mi SSE 8.1 mph - 0.08 in Rain Light Rain
5:07 AM 46.4 °F 41.9 °F 44.6 °F 93% 29.72 in 5.0 mi SSE 9.2 mph - 0.02 in Rain Rain
5:16 AM 46.4 °F 41.5 °F 42.8 °F 87% 29.72 in 9.0 mi SSE 10.4 mph - 0.03 in Rain Light Rain
5:53 AM 46.9 °F - 44.1 °F 90% 29.72 in 10.0 mi South 8.1 mph - 0.04 in Rain Light Rain
6:48 AM 48.2 °F - 44.6 °F 87% 29.71 in 10.0 mi South 9.2 mph - 0.04 in Rain Light Rain
6:53 AM 48.0 °F - 46.0 °F 93% 29.71 in 9.0 mi South 11.5 mph - 0.04 in Rain Light Rain
7:00 AM 48.2 °F - 44.6 °F 87% 29.70 in 10.0 mi South 13.8 mph - 0.00 in Rain Light Rain
7:41 AM 48.2 °F - 44.6 °F 87% 29.70 in 8.0 mi South 11.5 mph - 0.01 in Rain Light Rain
7:53 AM 46.9 °F - 45.0 °F 93% 29.70 in 6.0 mi SSW 11.5 mph - 0.05 in Rain Light Rain
8:53 AM 46.9 °F - 45.0 °F 93% 29.70 in 9.0 mi South 11.5 mph - 0.03 in Rain Light Rain
9:00 AM 46.4 °F 41.1 °F 44.6 °F 93% 29.69 in 10.0 mi South 11.5 mph - 0.01 in Rain Light Rain
9:53 AM 46.9 °F - 44.1 °F 90% 29.69 in 4.0 mi South 17.3 mph - 0.05 in Rain Rain
10:53 AM 46.9 °F - 44.1 °F 90% 29.70 in 8.0 mi SSW 12.7 mph - 0.07 in Rain Light Rain
11:53 AM 46.9 °F - 44.1 °F 90% 29.70 in 6.0 mi South 13.8 mph - 0.04 in Rain Light Rain
12:27 PM 46.4 °F 40.4 °F 44.6 °F 93% 29.69 in 8.0 mi South 13.8 mph - 0.03 in Rain Light Rain
12:53 PM 46.9 °F - 44.1 °F 90% 29.69 in 4.0 mi South 13.8 mph - 0.07 in Rain Rain
1:00 PM 46.4 °F 40.4 °F 44.6 °F 93% 29.69 in 5.0 mi South 13.8 mph - 0.00 in Rain Light Rain
1:11 PM 46.4 °F 40.1 °F 44.6 °F 93% 29.69 in 7.0 mi South 15.0 mph - 0.01 in Rain Light Rain
1:53 PM 46.9 °F - 44.1 °F 90% 29.70 in 5.0 mi SSW 9.2 mph - 0.05 in Rain Rain
2:00 PM 46.4 °F 41.5 °F 44.6 °F 93% 29.70 in 5.0 mi SW 10.4 mph - 0.02 in Rain Light Rain
2:07 PM 46.4 °F 42.4 °F 44.6 °F 93% 29.70 in 5.0 mi West 8.1 mph - 0.02 in Rain Light Rain
2:19 PM 46.4 °F 41.9 °F 44.6 °F 93% 29.70 in 6.0 mi West 9.2 mph - 0.03 in Rain Light Rain
2:32 PM 46.4 °F 41.9 °F 44.6 °F 93% 29.69 in 7.0 mi West 9.2 mph - 0.05 in Rain Light Rain
2:53 PM 45.0 °F 38.9 °F 44.1 °F 97% 29.69 in 9.0 mi West 12.7 mph - 0.07 in Rain Light Rain
3:24 PM 44.6 °F 39.2 °F 42.8 °F 93% 29.69 in 10.0 mi West 10.4 mph - 0.00 in Rain Light Rain
3:44 PM 44.6 °F 39.2 °F 42.8 °F 93% 29.69 in 10.0 mi WNW 10.4 mph - 0.00 in Rain Light Rain
3:53 PM 45.0 °F 39.7 °F 42.1 °F 90% 29.70 in 10.0 mi West 10.4 mph - 0.00 in Rain Light Rain
4:53 PM 44.1 °F 37.1 °F 39.9 °F 85% 29.71 in 10.0 mi WNW 15.0 mph - 0.00 in   Overcast
5:07 PM 44.6 °F 38.8 °F 39.2 °F 81% 29.72 in 10.0 mi WNW 11.5 mph - N/A   Overcast
5:53 PM 43.0 °F 35.4 °F 37.0 °F 80% 29.72 in 10.0 mi West 16.1 mph 21.9 mph N/A   Mostly Cloudy
6:53 PM 43.0 °F 36.8 °F 37.0 °F 80% 29.73 in 10.0 mi WNW 11.5 mph - N/A   Mostly Cloudy
7:53 PM 44.1 °F 37.1 °F 36.0 °F 73% 29.73 in 10.0 mi West 15.0 mph - N/A   Mostly Cloudy
8:53 PM 42.1 °F 37.1 °F 36.0 °F 79% 29.74 in 10.0 mi WNW 8.1 mph - N/A   Mostly Cloudy
9:53 PM 39.9 °F 35.8 °F 35.1 °F 83% 29.75 in 10.0 mi NW 5.8 mph - N/A   Mostly Cloudy
10:53 PM 39.0 °F 35.7 °F 35.1 °F 86% 29.77 in 10.0 mi NW 4.6 mph - N/A   Mostly Cloudy
11:53 PM 37.0 °F - 35.1 °F 93% 29.78 in 10.0 mi Calm Calm - N/A   Mostly Cloudy